CZ-4 DEB, 26123

Orbit data source: Space-Track

CZ-4 DEB, 26123 is space debris in SSO originally from a launch on Thu, 14 Oct 1999 UTC launched from the Taiyaun Space Center, China (TSC). Debris objects in space refer to the collection of defunct objects orbiting the Earth. Examples of debris include non-operational satellites, rocket bodies, and fragments generated from explosions, collisions, or faulty payload assembly.

Loading next visibility...
Identifier
26123, 1999-057K
Orbit
SSO
Country
Flag of CNCN / PRC
Related business
Manufacturer
Unknown
Mission
Spacecraft
Bus & Motor
Unknown
Mass
Unknown
Launch date (UTC)
1999-10-14 (26 years ago)
Launch vehicle
Unknown
Launch site
Taiyaun Space Center, China (TSC)
Object type
Payload
Rocket body
Debris
Shape & HBR
Unknown shape, 0.1 m
Radar Cross Section
Small (<0.1 m²)

Expand to show TLE details & history
Last TLE update: 11 hours ago

TLE from 11 hours ago
0 CZ-4 DEB
1 26123U 99057K   25289.08471294  .00005015  00000-0  90590-3 0  9992
2 26123  98.6631 282.8228 0054120 308.9122  50.7260 14.65973250354721
Epoch: 2025-10-16T02:01Z
TLE epoch observation values (Epoch: 2025-10-16T02:01:59.198Z)
Latitude
-0.00014°
Longitude
-132.52334°
Altitude
652.89 km
Speed
7.544 km/s
True Right ascension
18h 51m 17s
True Declination
0° 00' 01"
Sunlit
Object was in daylight at epoch
Visualization orbit readout
Latitude
Unknown
Longitude
Unknown
Altitude
Unknown
Speed
Unknown
Apparent Right ascension
Unknown
Apparent Declination
Unknown
Sunlit
N/A
Visualization observer readout
Local Sidereal Time
07:49:39
Azimuth
Unknown
Elevation
Unknown
Doppler factor
Unknown
Orbital elements
Apogee altitude
709.198 km
Perigee altitude
632.897 km
Semi-major axis
7,049.184 km
Eccentricity
0.00541
Inclination
98.6631°
RAAN
282.8228°
Arg. of periapsis
308.9122°
True anomaly
51.20815°
Mean anomaly
50.726°
Eccentric anomaly
50.96687°
Mean motion
3.6672 °/min
Orbital period
98.17 mins
BSTAR
0.0009059
Loading maneuver chart data...
Computing Atmospheric mass density...

Documentation

Showing up to 5 results
|